STARLINK-6076 (56100 NORAD) Tracking and Keplerian Element Data

This shows tracking and keplerian element data for the satellite.

Feedback or suggestion? Click here.




ElementValue
Catalog56100
NameSTARLINK-6076
Epoch Orbit652
Epoch Day127.25001157
Epoch Year2023
RAAN37.8926
Inclination43.0007
Eccentricity0.0001523
Argument of Perigee278.491
Mean Anonmoly63.875
Mean Motion15.28404166
Decay Rate-0.00901524
L11 56100U 23046H 23127.25001157 -.00901524 00000+0 -34841-1 0 9996
L22 56100 43.0007 37.8926 0001523 278.4910 63.8750 15.28404166 6524



Live tracking and technical data element details for STARLINK-6076 (NORAD 56100). STARLINK-6076 can be tracked NOW for your location showing map with azimuth and elevation plus other details from your city location.







IsCatalogInMostPopularTable: catalog: 56100, numindb: 1
Update: records affected: 1



GetName: 56100 STARLINK-6076

Hit Count: updated at: Sun, 04 Jun 2023 23:25:21 GMT